Find Starlink 37097

NORAD ID: 68238 Int'l Des: 2026-054 Owner: SPXS Country: US Constellation: starlink operational
LEOCIRCULAR

当前视图

正在加载3D地球...

About Starlink 37097

Starlink 37097 (NORAD 68238) is a starlink constellation satellite (v2 mini) launched Mar 17, 2026 by SPXS of US. It operates in LEO, CIRCULAR orbit with a mass of 575.00 kg.

关于 Starlink 37097

正在加载描述...

即将过境

Passes for default location (London). Set your location on the main map for personalized predictions.

高度历史

Loading altitude history...

两行轨道根数

1 68238U 26054G 26167.36297123 .00011777 00000-0 35908-3 0 9990
2 68238 53.1568 191.0649 0001522 72.8550 287.2619 15.34405437 14202
Epoch: Jun 16, 2026 • Age: 12 hours

当前状态

高度 478.4 km
速度 7.63 km/s
星下点 -44.45°S, 77.73°W
发射日期 Mar 17, 2026
运行时间 0.2 years
类型 internet

技术详情

分类 Payload
质量 575.00 kg
干质量 530.00 kg
总质量 575.00 kg
长度 0.30 m
直径 4.10 m
跨度 29.00 m
形状 Box + pan
制造商 SPXS
平台类型 Starlink V2MO
阶段状态 In Orbit
所有者/国家 SPXS/US

Most Searched